Location: Alto Pass Reservoir
(37.5801°N, 89.3084°W)
Time: 22:18:01
(UTC+00:00)

Cosmos 2298 Rocket - Pass Details

Date: 14 July 2022
Orbit: 775 x 784 km, 74.0° (Epoch: 18 August)

Event Time Altitude Azimuth Distance (km) Brightness Sun altitude
Rises 06:49:39 0° 349° (NNW) 3,279 8.2 -29.8°
Reaches altitude 10° 06:52:11 10° 356° (N) 2,346 7.4 -29.6°
Maximum altitude 06:57:13 41° 67° (ENE) 1,116 5.0 -29.4°
Enters shadow 06:57:52 40° 85° (E) 1,145 4.9 -29.4°
